Richlands, NC

8:18 PM EST on February 10, 2016 (GMT -0500)
Ellis

Weather History for KOAJ - June, 2013

Change the Weather History Date:

Saturday, June 22, 2013

  Actual Average Record
Temperature  
Mean Temperature 74 °F -  
Max Temperature 78 °F 85 °F 96 °F (2015)
Min Temperature 69 °F 65 °F 55 °F (2003)
Cooling Degree Days 8    
Growing Degree Days 24 (Base 50)    
Moisture  
Dew Point 71 °F    
Average Humidity 92    
Maximum Humidity 100    
Minimum Humidity 83    
Precipitation  
Precipitation 1.59 in - - ()
Sea Level Pressure  
Sea Level Pressure 30.16 in    
Wind  
Wind Speed 7 mph (ESE)    
Max Wind Speed 15 mph    
Max Gust Speed 21 mph    
Visibility 9 miles    
Events Thunderstorm    
Averages and records for this station are not official NWS values.
T = Trace of Precipitation, MM = Missing Value Source: NWS Daily Summary

Daily Weather History Graph

Daily Weather History Graph

Search for Another Location

Airport or City:

Trip Planner

Search our weather history database for the weather conditions in past years. The results will help you decide how hot, cold, wet, or windy it might be!

Date:

Astronomy

Jun. 22, 2013 Rise Set
Actual Time 5:57 AM EDT 8:27 PM EDT
Civil Twilight 5:27 AM EDT 8:57 PM EDT
Nautical Twilight 4:51 AM EDT 9:33 PM EDT
Astronomical Twilight 4:10 AM EDT 10:14 PM EDT
Moon 7:42 PM EDT (6/22) 5:05 AM EDT (6/22)
Length of Visible Light 15h 29m
Length of Day
14h 29m
Waxing Gibbous, 99% of the Moon is Illuminated
Jun 22
Waxing Gibbous
Jun 23
Full
Jun 30
Last Quarter
Jul 8
New
Jul 15
First Quarter

Hourly Weather History & Observations

Time (EDT) Temp. Dew Point Humidity Pressure Visibility Wind Dir Wind Speed Gust Speed Precip Events Conditions
12:15 AM 71.6 °F 69.8 °F 94% 30.19 in 10.0 mi NE 5.8 mph - N/A   Clear
12:35 AM 71.6 °F 69.8 °F 94% 30.18 in 10.0 mi NNE 5.8 mph - N/A   Clear
12:55 AM 71.6 °F 69.8 °F 94% 30.19 in 10.0 mi North 3.5 mph - N/A   Partly Cloudy
1:15 AM 71.6 °F 69.8 °F 94% 30.18 in 10.0 mi North 8.1 mph - N/A   Partly Cloudy
1:35 AM 71.6 °F 69.8 °F 94% 30.17 in 10.0 mi North 8.1 mph - N/A   Clear
1:55 AM 71.6 °F 69.8 °F 94% 30.16 in 10.0 mi NNE 6.9 mph - N/A   Clear
2:15 AM 71.6 °F 69.8 °F 94% 30.16 in 10.0 mi NNE 8.1 mph - N/A   Clear
2:35 AM 71.6 °F 69.8 °F 94% 30.16 in 10.0 mi North 9.2 mph - N/A   Partly Cloudy
2:55 AM 71.6 °F 69.8 °F 94% 30.15 in 10.0 mi NNE 10.4 mph - N/A   Clear
3:15 AM 71.6 °F 69.8 °F 94% 30.14 in 10.0 mi NNE 8.1 mph - N/A   Partly Cloudy
3:35 AM 71.6 °F 69.8 °F 94% 30.15 in 9.0 mi East 9.2 mph 18.4 mph N/A   Mostly Cloudy
3:55 AM 69.8 °F 68.0 °F 94% 30.14 in 10.0 mi ENE 9.2 mph - 0.01 in   Mostly Cloudy
4:15 AM 69.8 °F 68.0 °F 94% 30.14 in 10.0 mi ENE 9.2 mph - 0.01 in   Mostly Cloudy
4:35 AM 71.6 °F 69.8 °F 94% 30.15 in 9.0 mi ENE 6.9 mph - 0.03 in   Overcast
4:55 AM 71.6 °F 69.8 °F 94% 30.14 in 4.0 mi East 4.6 mph - 0.12 in   Overcast
5:15 AM 71.6 °F 69.8 °F 94% 30.15 in 7.0 mi ESE 6.9 mph - 0.05 in   Overcast
5:35 AM 71.6 °F 69.8 °F 94% 30.16 in 9.0 mi East 11.5 mph - 0.08 in   Mostly Cloudy
5:55 AM 71.6 °F 69.8 °F 94% 30.16 in 9.0 mi East 9.2 mph - 0.10 in   Mostly Cloudy
6:15 AM 71.6 °F 69.8 °F 94% 30.16 in 8.0 mi ENE 5.8 mph - 0.03 in   Mostly Cloudy
6:35 AM 71.6 °F 69.8 °F 94% 30.17 in 7.0 mi SSE 5.8 mph - 0.10 in   Mostly Cloudy
6:55 AM 71.6 °F 69.8 °F 94% 30.17 in 9.0 mi ESE 3.5 mph - 0.11 in   Mostly Cloudy
7:15 AM 71.6 °F 69.8 °F 94% 30.18 in 10.0 mi ENE 5.8 mph - N/A   Mostly Cloudy
7:35 AM 71.6 °F 69.8 °F 94% 30.18 in 9.0 mi East 4.6 mph - N/A   Mostly Cloudy
7:55 AM 71.6 °F 69.8 °F 94% 30.18 in 10.0 mi NE 4.6 mph - N/A   Scattered Clouds
8:15 AM 73.4 °F 71.6 °F 94% 30.18 in 10.0 mi North 8.1 mph - N/A   Mostly Cloudy
8:35 AM 71.6 °F 69.8 °F 94% 30.18 in 5.0 mi NNE 8.1 mph - N/A   Overcast
8:55 AM 71.6 °F 69.8 °F 94% 30.18 in 3.0 mi NE 12.7 mph - 0.03 in   Overcast
9:15 AM 71.6 °F 69.8 °F 94% 30.18 in 9.0 mi East 8.1 mph 16.1 mph 0.05 in   Mostly Cloudy
9:35 AM 71.6 °F 69.8 °F 94% 30.18 in 5.0 mi ESE 9.2 mph - 0.06 in   Overcast
9:55 AM 71.6 °F 69.8 °F 94% 30.18 in 5.0 mi East 8.1 mph - 0.09 in   Overcast
10:15 AM 71.6 °F 69.8 °F 94% 30.18 in 10.0 mi East 12.7 mph 18.4 mph N/A   Overcast
10:35 AM 73.4 °F 69.8 °F 88% 30.18 in 10.0 mi ESE 15.0 mph 20.7 mph N/A   Overcast
10:55 AM 73.4 °F 69.8 °F 88% 30.17 in 10.0 mi ESE 11.5 mph 17.3 mph N/A   Overcast
11:15 AM 73.4 °F 69.8 °F 88% 30.17 in 7.0 mi ESE 12.7 mph 19.6 mph N/A   Overcast
11:35 AM 73.4 °F 71.6 °F 94% 30.17 in 10.0 mi East 12.7 mph 16.1 mph N/A   Overcast
11:55 AM 75.2 °F 71.6 °F 89% 30.17 in 10.0 mi ESE 9.2 mph - N/A   Overcast
12:15 PM 75.2 °F 71.6 °F 89% 30.17 in 10.0 mi ESE 8.1 mph - N/A   Overcast
12:35 PM 75.2 °F 71.6 °F 89% 30.18 in 10.0 mi ESE 10.4 mph - N/A   Overcast
12:55 PM 73.4 °F 71.6 °F 94% 30.18 in 9.0 mi ESE 9.2 mph 17.3 mph N/A   Overcast
1:15 PM 73.4 °F 71.6 °F 94% 30.17 in 6.0 mi ESE 10.4 mph - N/A   Overcast
1:35 PM 73.4 °F 71.6 °F 94% 30.17 in 3.0 mi ESE 9.2 mph - 0.15 in Thunderstorm Overcast
1:55 PM 73.4 °F 71.6 °F 94% 30.17 in 7.0 mi SSE 4.6 mph - 0.19 in   Overcast
2:15 PM 73.4 °F 71.6 °F 94% 30.16 in 2.5 mi Calm Calm - 0.34 in   Overcast
2:35 PM 73.4 °F 71.6 °F 94% 30.16 in 3.0 mi Calm Calm - 0.37 in   Overcast
2:55 PM 75.2 °F 73.4 °F 94% 30.15 in 3.0 mi ESE 3.5 mph - 0.39 in   Overcast
3:15 PM 77.0 °F 75.2 °F 94% 30.14 in 10.0 mi SE 8.1 mph - N/A   Mostly Cloudy
3:35 PM 78.8 °F 73.4 °F 83% 30.13 in 10.0 mi ESE 10.4 mph - N/A Thunderstorm Scattered Clouds
3:55 PM 77.0 °F 73.4 °F 89% 30.13 in 10.0 mi SSE 6.9 mph - N/A Thunderstorm Thunderstorm
4:15 PM 75.2 °F 73.4 °F 94% 30.14 in 5.0 mi SW 8.1 mph - 0.22 in Thunderstorm Thunderstorm
4:35 PM 75.2 °F 73.4 °F 94% 30.15 in 3.0 mi SSE 6.9 mph - 0.49 in   Overcast
4:55 PM 73.4 °F 71.6 °F 94% 30.14 in 7.0 mi SSE 8.1 mph 17.3 mph 0.55 in   Mostly Cloudy
5:15 PM 75.2 °F 71.6 °F 89% 30.14 in 10.0 mi SE 5.8 mph - N/A   Mostly Cloudy
5:35 PM 75.2 °F 73.4 °F 94% 30.13 in 9.0 mi South 4.6 mph - N/A   Clear
5:55 PM 78.8 °F 73.4 °F 83% 30.13 in 10.0 mi SE 9.2 mph - N/A   Mostly Cloudy
6:15 PM 77.0 °F 73.4 °F 89% 30.13 in 10.0 mi SE 10.4 mph - N/A   Overcast
6:35 PM 78.8 °F 73.4 °F 83% 30.13 in 10.0 mi SE 9.2 mph - N/A   Mostly Cloudy
6:55 PM 78.8 °F 73.4 °F 83% 30.13 in 10.0 mi SE 12.7 mph - N/A   Mostly Cloudy
7:15 PM 77.0 °F 73.4 °F 89% 30.14 in 10.0 mi SSE 10.4 mph - N/A   Mostly Cloudy
7:35 PM 77.0 °F 73.4 °F 89% 30.14 in 10.0 mi SSE 10.4 mph - N/A   Mostly Cloudy
7:55 PM 75.2 °F 71.6 °F 89% 30.14 in 10.0 mi SSE 8.1 mph - N/A   Mostly Cloudy
8:15 PM 75.2 °F 71.6 °F 89% 30.14 in 10.0 mi SSE 5.8 mph - N/A   Mostly Cloudy
8:35 PM 75.2 °F 71.6 °F 89% 30.14 in 10.0 mi SE 5.8 mph - N/A   Scattered Clouds
8:55 PM 75.2 °F 71.6 °F 89% 30.15 in 10.0 mi SSE 4.6 mph - N/A   Partly Cloudy
9:15 PM 73.4 °F 71.6 °F 94% 30.15 in 10.0 mi SE 5.8 mph - N/A   Clear
9:35 PM 73.4 °F 71.6 °F 94% 30.15 in 10.0 mi SSE 5.8 mph - N/A   Mostly Cloudy
9:55 PM 73.4 °F 71.6 °F 94% 30.17 in 10.0 mi SSE 5.8 mph - N/A   Scattered Clouds
10:15 PM 73.4 °F 71.6 °F 94% 30.17 in 10.0 mi SSE 4.6 mph - N/A   Partly Cloudy
10:35 PM 73.4 °F 71.6 °F 94% 30.17 in 10.0 mi South 3.5 mph - N/A   Clear
10:55 PM 73.4 °F 71.6 °F 94% 30.17 in 10.0 mi Calm Calm - N/A   Clear
11:15 PM 71.6 °F 71.6 °F 100% 30.18 in 10.0 mi Calm Calm - N/A   Partly Cloudy
11:35 PM 71.6 °F 69.8 °F 94% 30.18 in 10.0 mi South 4.6 mph - N/A   Partly Cloudy
11:55 PM 71.6 °F 69.8 °F 94% 30.18 in 10.0 mi South 4.6 mph - N/A   Clear